EW6230 Weather Reports


time (UTC)temp
F
wind
direction
speed
knots
gust
knots
rain 1hr
in
rain 24hr
in
rain mn
in
humidity
%
barometer
mb
20260905084600 53 87 0.0 0.0 0.00 0.00 0.00 1 1013.3
20260905083047 53 87 0.0 0.0 0.00 0.00 0.00 1 1013.2
20260905081543 53 87 0.0 0.0 0.00 0.00 0.00 1 1013.1
20260905080048 53 87 0.0 0.0 0.00 0.00 0.00 1 1013.2
20260905074534 53 87 0.0 0.0 0.00 0.00 0.00 1 1013.1
20260905073028 53 87 0.0 0.0 0.00 0.00 0.00 1 1013.1
20260905071524 53 87 0.0 0.0 0.00 0.00 0.00 1 1013.0
20260905070023 53 87 0.0 0.0 0.00 0.00 0.00 1 1012.9
20260905064518 53 87 0.0 0.0 0.00 0.00 0.00 1 1012.8
20260905063011 53 87 0.0 0.0 0.00 0.00 0.00 1 1012.7
20260905061507 53 87 0.0 0.0 0.00 0.00 0.00 1 1012.6
20260905060003 53 87 0.0 0.0 0.00 0.00 0.00 1 1012.7
20260905054559 54 87 0.0 0.9 0.00 0.00 0.00 2 1012.7
20260905053054 54 87 0.0 0.0 0.00 0.00 0.00 4 1012.6
20260905051550 54 87 0.0 0.0 0.00 0.00 0.00 7 1012.6
20260905050045 55 87 0.0 0.0 0.00 0.00 0.00 11 1012.5
20260905044540 55 87 0.0 0.0 0.00 0.00 0.00 9 1012.7
20260905043035 55 87 0.0 0.0 0.00 0.00 0.00 13 1012.7
20260905041531 56 87 0.0 0.0 0.00 0.00 0.00 15 1012.6
20260905040031 56 87 0.0 0.0 0.00 0.00 0.00 19 1012.6
20260905034522 56 86 0.0 0.0 0.00 0.00 0.00 19 1012.6
20260905033029 56 86 0.0 0.0 0.00 0.00 0.00 23 1012.5
20260905031513 57 86 0.0 0.0 0.00 0.00 0.00 27 1012.3
20260905030033 57 86 0.0 0.0 0.00 0.00 0.00 33 1012.1
20260905024602 58 86 0.0 0.0 0.00 0.00 0.00 42 1011.9
20260905023054 59 86 0.0 0.0 0.00 0.00 0.00 51 1011.8
20260905021554 60 86 0.0 0.0 0.00 0.00 0.00 56 1011.8
20260905020044 61 86 0.0 0.0 0.00 0.00 0.00 62 1011.9
20260905014539 61 86 0.0 0.0 0.00 0.00 0.00 63 1011.8
20260905013035 62 86 0.0 0.0 0.00 0.00 0.00 63 1011.7
20260905011536 62 86 0.0 0.0 0.00 0.00 0.00 62 1011.6
20260905010026 62 86 0.0 0.0 0.00 0.00 0.00 63 1011.5
20260905004535 62 86 0.0 0.0 0.00 0.00 0.00 63 1011.4
20260905003028 63 86 0.0 0.0 0.00 0.00 0.00 63 1011.2
20260905001539 63 86 0.0 0.9 0.00 0.00 0.00 63 1011.2
20260905000009 63 86 0.0 0.0 0.00 0.00 0.00 63 1011.1
20260904234514 63 86 0.0 0.0 0.00 0.01 0.00 63 1011.0
20260904233120 64 86 0.0 0.0 0.00 0.01 0.00 63 1011.0
20260904231605 65 86 0.0 0.9 0.00 0.01 0.00 63 1010.8
20260904230052 65 86 0.0 0.9 0.00 0.01 0.00 62 1010.9
20260904224555 67 87 0.0 0.9 0.00 0.01 0.00 62 1010.7
20260904223056 69 349 0.0 0.9 0.00 0.01 0.00 60 1010.7
20260904221539 69 336 0.0 0.9 0.00 0.01 0.00 59 1010.7
20260904220034 70 211 0.0 0.9 0.00 0.01 0.00 57 1010.9
20260904214529 67 207 0.0 1.7 0.00 0.01 0.00 62 1010.8
20260904213027 66 44 0.0 0.9 0.00 0.01 0.00 63 1010.8
20260904211520 66 198 0.0 2.6 0.00 0.01 0.00 61 1010.8
20260904210015 67 234 0.0 0.9 0.00 0.01 0.00 63 1010.8
20260904204511 65 131 0.0 0.9 0.00 0.01 0.00 62 1010.8
20260904203007 65 136 0.0 0.9 0.00 0.01 0.00 62 1010.8
20260904201502 64 139 0.0 0.9 0.00 0.01 0.00 62 1010.8
20260904194554 65 11 0.0 0.9 0.00 0.01 0.00 63 1010.7
20260904193106 66 350 0.0 0.9 0.00 0.01 0.00 62 1010.6
20260904191552 65 13 0.0 0.9 0.00 0.01 0.00 63 1010.5
20260904190041 63 73 0.0 1.7 0.00 0.01 0.00 63 1010.3
20260904184536 63 1 0.0 0.9 0.00 0.01 0.00 60 1010.4
20260904183031 62 58 0.0 0.9 0.00 0.01 0.00 57 1010.3
20260904181533 61 58 0.0 0.0 0.00 0.01 0.00 56 1010.2
20260904180023 61 59 0.0 0.9 0.00 0.01 0.00 58 1010.4
20260904174519 60 81 0.0 0.9 0.00 0.01 0.00 45 1010.3
20260904173033 59 82 0.0 0.0 0.00 0.01 0.00 32 1010.3
20260904171512 58 82 0.0 0.0 0.00 0.01 0.00 29 1010.2
20260904170007 58 82 0.0 0.0 0.00 0.01 0.00 21 1010.2
20260904164600 57 81 0.0 0.0 0.00 0.01 0.00 12 1010.3
20260904164501 57 81 0.0 0.0 0.00 0.01 0.00 10 1010.2
20260904163056 57 81 0.0 0.0 0.00 0.01 0.00 1 1010.3
20260904161600 57 81 0.0 0.0 0.00 0.01 0.00 1 1010.0
20260904160057 55 81 0.0 0.0 0.00 0.01 0.00 1 1009.9
20260904154543 53 80 0.0 0.0 0.00 0.01 0.00 1 1009.9
20260904153039 53 80 0.0 0.0 0.00 0.01 0.00 1 1009.9
20260904151539 52 79 0.0 0.0 0.00 0.01 0.00 1 1009.8
20260904150035 51 79 0.0 0.0 0.00 0.01 0.00 1 1009.7
20260904144525 51 79 0.0 0.0 0.00 0.01 0.00 1 1009.8
20260904143022 0 0.0 0.0 0.00 0.01 0.00 1009.6
20260904141517 0 0.0 0.0 0.00 0.01 0.00 1009.4
20260904140013 0 0.0 0.0 0.00 0.01 0.00 1009.1
20260904134508 0 0.0 0.0 0.00 0.01 0.00 1008.8
20260904133005 0 0.0 0.0 0.00 0.01 0.00 1008.6
20260904131603 0 0.0 0.0 0.00 0.01 0.00 1008.6
20260904130058 0 0.0 0.0 0.00 0.01 0.00 1008.4
20260904124602 0 0.0 0.0 0.00 0.01 0.00 1008.3
20260904123047 0 0.0 0.0 0.00 0.01 0.00 1008.3
20260904121542 0 0.0 0.0 0.00 0.01 0.00 1008.2
20260904120037 0 0.0 0.0 0.00 0.01 0.00 1008.3
20260904114533 48 79 0.0 0.0 0.00 0.01 0.00 1 1008.1
20260904113029 49 79 0.0 0.0 0.00 0.01 0.00 1 1007.9
20260904111524 49 79 0.0 0.0 0.00 0.01 0.00 1 1007.8
20260904110020 49 79 0.0 0.0 0.00 0.01 0.00 1 1007.7
20260904104517 49 79 0.0 0.0 0.00 0.01 0.00 1 1007.7
20260904103012 49 79 0.0 0.0 0.00 0.01 0.00 1 1007.6
20260904101508 49 79 0.0 0.0 0.00 0.01 0.00 1 1007.5
20260904100121 49 79 0.0 0.0 0.00 0.01 0.00 1 1007.5
20260904094554 49 79 0.0 0.0 0.00 0.01 0.00 1 1007.5
20260904093054 49 79 0.0 0.0 0.00 0.01 0.00 1 1007.6
20260904091553 49 79 0.0 0.0 0.00 0.01 0.00 1 1007.5
20260904090041 49 79 0.0 0.0 0.00 0.01 0.00 1 1007.6